Warroad, MN

1:23 AM CDT on May 26, 2018 (GMT -0500)
Warroad International-Carlson

Weather History for KRRT - February, 2013

Change the Weather History Date:

Tuesday, February 26, 2013

  Actual Average Record
Temperature  
Mean Temperature 26 °F -  
Max Temperature 39 °F 29 °F 50 °F (1958)
Min Temperature 12 °F 5 °F -28 °F (1950)
Degree Days  
Heating Degree Days 40    
Moisture  
Dew Point 14 °F    
Average Humidity 68    
Maximum Humidity 86    
Minimum Humidity 39    
Precipitation  
Precipitation 0.00 in - - ()
Sea Level Pressure  
Sea Level Pressure 30.02 in    
Wind  
Wind Speed 4 mph (SW)    
Max Wind Speed 8 mph    
Max Gust Speed -    
Visibility 10 miles    
Events      
Averages and records for this station are not official NWS values.
T = Trace of Precipitation, MM = Missing Value Source: NWS Daily Summary

Daily Weather History Graph

Daily Weather History Graph

Search for Another Location

Airport or City:

Astronomy

Feb. 26, 2013 Rise Set
Actual Time 7:08 AM CST 6:00 PM CST
Civil Twilight 6:36 AM CST 6:32 PM CST
Nautical Twilight 6:00 AM CST 7:09 PM CST
Astronomical Twilight 5:23 AM CST 7:45 PM CST
Moon 7:29 PM CST 7:03 AM CST
Length of Visible Light 11h 55m
Length of Day
10h 51m
Full, 99% of the Moon is Illuminated
Feb 26
Full
Mar 4
Last Quarter
Mar 11
New
Mar 19
First Quarter
Mar 27
Full

Hourly Weather History & Observations

Time (CST) Temp. Windchill Dew Point Humidity Pressure Visibility Wind Dir Wind Speed Gust Speed Precip Events Conditions
12:14 AM 17.6 °F 9.3 °F 12.2 °F 79% 29.97 in 10.0 mi SSW 5.8 mph - N/A   Clear
12:34 AM 17.6 °F 10.7 °F 12.2 °F 79% 29.97 in 10.0 mi SSW 4.6 mph - N/A   Clear
12:54 AM 15.8 °F 7.2 °F 12.2 °F 86% 29.97 in 10.0 mi SSW 5.8 mph - N/A   Clear
1:14 AM 17.6 °F 8.2 °F 12.2 °F 79% 29.96 in 10.0 mi SSW 6.9 mph - N/A   Clear
1:34 AM 15.8 °F 8.6 °F 10.4 °F 79% 29.96 in 10.0 mi South 4.6 mph - N/A   Clear
1:54 AM 15.8 °F 8.6 °F 10.4 °F 79% 29.97 in 10.0 mi SSW 4.6 mph - N/A   Clear
2:14 AM 15.8 °F 8.6 °F 10.4 °F 79% 29.97 in 10.0 mi SSW 4.6 mph - N/A   Clear
2:34 AM 14.0 °F 6.5 °F 10.4 °F 86% 29.97 in 10.0 mi SSW 4.6 mph - N/A   Clear
2:54 AM 15.8 °F 8.6 °F 10.4 °F 79% 29.98 in 10.0 mi SSW 4.6 mph - N/A   Clear
3:14 AM 15.8 °F 8.6 °F 10.4 °F 79% 29.97 in 10.0 mi SSW 4.6 mph - N/A   Clear
3:34 AM 15.8 °F 7.2 °F 10.4 °F 79% 29.98 in 10.0 mi SSW 5.8 mph - N/A   Clear
3:54 AM 15.8 °F 7.2 °F 10.4 °F 79% 29.98 in 10.0 mi SSW 5.8 mph - N/A   Clear
4:14 AM 15.8 °F 6.1 °F 10.4 °F 79% 29.98 in 10.0 mi SSW 6.9 mph - N/A   Clear
4:33 AM 15.8 °F 6.1 °F 10.4 °F 79% 29.98 in 10.0 mi SSW 6.9 mph - N/A   Clear
4:54 AM 15.8 °F 6.1 °F 10.4 °F 79% 29.98 in 10.0 mi SSW 6.9 mph - N/A   Clear
5:14 AM 17.6 °F 8.2 °F 12.2 °F 79% 29.98 in 10.0 mi SSW 6.9 mph - N/A   Clear
5:33 AM 17.6 °F 8.2 °F 12.2 °F 79% 29.99 in 10.0 mi SSW 6.9 mph - N/A   Clear
5:54 AM 15.8 °F 6.1 °F 12.2 °F 86% 30.00 in 10.0 mi SSW 6.9 mph - N/A   Clear
6:14 AM 15.8 °F 6.1 °F 10.4 °F 79% 30.01 in 10.0 mi SSW 6.9 mph - N/A   Clear
6:33 AM 15.8 °F 8.6 °F 10.4 °F 79% 30.01 in 10.0 mi SSW 4.6 mph - N/A   Clear
6:54 AM 14.0 °F 6.5 °F 10.4 °F 86% 30.01 in 10.0 mi SSW 4.6 mph - N/A   Clear
7:14 AM 15.8 °F 10.2 °F 10.4 °F 79% 30.01 in 10.0 mi South 3.5 mph - N/A   Clear
7:33 AM 12.2 °F - 8.6 °F 85% 30.02 in 10.0 mi Calm Calm - N/A   Clear
7:54 AM 14.0 °F 5.1 °F 10.4 °F 86% 30.01 in 10.0 mi SSW 5.8 mph - N/A   Clear
8:14 AM 15.8 °F - 10.4 °F 79% 30.00 in 10.0 mi Calm Calm - N/A   Clear
8:34 AM 15.8 °F - 10.4 °F 79% 30.00 in 10.0 mi Calm Calm - N/A   Clear
8:54 AM 15.8 °F - 10.4 °F 79% 30.01 in 10.0 mi Calm Calm - N/A   Clear
9:14 AM 17.6 °F - 12.2 °F 79% 30.01 in 10.0 mi Calm Calm - N/A   Clear
9:34 AM 17.6 °F - 12.2 °F 79% 30.01 in 10.0 mi Calm Calm - N/A   Clear
9:54 AM 19.4 °F - 12.2 °F 74% 30.01 in 10.0 mi Calm Calm - N/A   Clear
10:14 AM 19.4 °F - 12.2 °F 74% 30.01 in 10.0 mi Calm Calm - N/A   Clear
10:34 AM 23.0 °F - 15.8 °F 74% 30.02 in 10.0 mi Calm Calm - N/A   Clear
10:54 AM 24.8 °F - 15.8 °F 69% 30.02 in 10.0 mi Calm Calm - N/A   Clear
11:14 AM 26.6 °F - 17.6 °F 69% 30.02 in 10.0 mi Calm Calm - N/A   Clear
11:34 AM 30.2 °F - 17.6 °F 60% 30.02 in 10.0 mi Calm Calm - N/A   Clear
11:54 AM 33.8 °F 30.8 °F 17.6 °F 52% 30.02 in 10.0 mi WSW 3.5 mph - N/A   Clear
12:14 PM 35.6 °F 31.7 °F 17.6 °F 48% 30.02 in 10.0 mi SW 4.6 mph - N/A   Clear
12:34 PM 35.6 °F 32.8 °F 19.4 °F 52% 30.02 in 10.0 mi SSW 3.5 mph - N/A   Clear
12:54 PM 35.6 °F - 19.4 °F 52% 30.02 in 10.0 mi Calm Calm - N/A   Clear
1:14 PM 37.4 °F 33.8 °F 17.6 °F 45% 30.02 in 10.0 mi SW 4.6 mph - N/A   Clear
1:34 PM 37.4 °F 33.8 °F 17.6 °F 45% 30.02 in 10.0 mi SSW 4.6 mph - N/A   Clear
1:54 PM 39.2 °F 35.9 °F 15.8 °F 39% 30.02 in 10.0 mi SW 4.6 mph - N/A   Clear
2:14 PM 39.2 °F 35.0 °F 15.8 °F 39% 30.02 in 10.0 mi SW 5.8 mph - N/A   Clear
2:34 PM 39.2 °F 37.0 °F 17.6 °F 42% 30.02 in 10.0 mi West 3.5 mph - N/A   Clear
2:54 PM 39.2 °F 35.9 °F 19.4 °F 45% 30.02 in 10.0 mi West 4.6 mph - N/A   Clear
3:14 PM 39.2 °F 35.0 °F 19.4 °F 45% 30.02 in 10.0 mi West 5.8 mph - N/A   Clear
3:34 PM 39.2 °F 34.2 °F 17.6 °F 42% 30.03 in 10.0 mi West 6.9 mph - N/A   Clear
3:54 PM 37.4 °F 32.8 °F 19.4 °F 48% 30.03 in 10.0 mi West 5.8 mph - N/A   Clear
4:14 PM 39.2 °F 35.0 °F 17.6 °F 42% 30.03 in 10.0 mi West 5.8 mph - N/A   Clear
4:34 PM 37.4 °F 32.1 °F 19.4 °F 48% 30.03 in 10.0 mi West 6.9 mph - N/A   Clear
4:54 PM 37.4 °F 32.1 °F 17.6 °F 45% 30.03 in 10.0 mi West 6.9 mph - N/A   Clear
5:14 PM 35.6 °F 31.7 °F 15.8 °F 44% 30.04 in 10.0 mi West 4.6 mph - N/A   Clear
5:34 PM 33.8 °F 30.8 °F 15.8 °F 48% 30.04 in 10.0 mi West 3.5 mph - N/A   Clear
5:54 PM 32.0 °F 28.7 °F 15.8 °F 51% 30.04 in 10.0 mi West 3.5 mph - N/A   Clear
6:14 PM 30.2 °F 26.7 °F 17.6 °F 60% 30.05 in 10.0 mi West 3.5 mph - N/A   Clear
6:34 PM 28.4 °F 24.6 °F 15.8 °F 59% 30.05 in 10.0 mi West 3.5 mph - N/A   Clear
6:54 PM 26.6 °F 21.2 °F 15.8 °F 64% 30.05 in 10.0 mi West 4.6 mph - N/A   Clear
7:14 PM 24.8 °F 20.5 °F 15.8 °F 69% 30.05 in 10.0 mi West 3.5 mph - N/A   Clear
7:34 PM 26.6 °F 22.6 °F 15.8 °F 64% 30.05 in 10.0 mi West 3.5 mph - N/A   Clear
7:54 PM 26.6 °F 21.2 °F 15.8 °F 64% 30.05 in 10.0 mi WSW 4.6 mph - N/A   Clear
8:13 PM 24.8 °F - 15.8 °F 69% 30.05 in 10.0 mi Calm Calm - N/A   Clear
8:34 PM 23.0 °F 17.0 °F 14.0 °F 68% 30.05 in 10.0 mi WNW 4.6 mph - N/A   Clear
8:53 PM 24.8 °F 20.5 °F 15.8 °F 69% 30.05 in 10.0 mi WNW 3.5 mph - N/A   Clear
9:14 PM 19.4 °F - 12.2 °F 74% 30.05 in 10.0 mi Calm Calm - N/A   Clear
9:34 PM 21.2 °F - 14.0 °F 74% 30.06 in 10.0 mi Calm Calm - N/A   Clear
9:54 PM 19.4 °F - 12.2 °F 74% 30.05 in 10.0 mi Calm Calm - N/A   Clear
10:14 PM 17.6 °F 12.3 °F 10.4 °F 73% 30.05 in 10.0 mi SW 3.5 mph - N/A   Clear
10:54 PM 17.6 °F 12.3 °F 12.2 °F 79% 30.06 in 10.0 mi WSW 3.5 mph - N/A   Clear
11:14 PM 17.6 °F 9.3 °F 12.2 °F 79% 30.07 in 10.0 mi WNW 5.8 mph - N/A   Clear
11:34 PM 23.0 °F 13.9 °F 15.8 °F 74% 30.07 in 10.0 mi West 8.1 mph - N/A   Clear
11:54 PM 23.0 °F 14.7 °F 15.8 °F 74% 30.07 in 10.0 mi WNW 6.9 mph - N/A   Clear